Hourly Weather Alkuzhinskie Borki

Today, 2 March, Tuesday

Time Temperature Precipitation Wind Pressure Humidity
00:00 -5°C° 0 mm 6 mps 754 mmHg 92%
01:00 -5°C° 0 mm 6 mps 753 mmHg 92%
02:00 -5°C° 0 mm 6 mps 752 mmHg 92%
03:00 -4°C° 0 mm 6 mps 752 mmHg 92%
04:00 -4°C° 0 mm 6 mps 751 mmHg 92%
05:00 -3°C° 0 mm 6 mps 750 mmHg 92%
06:00 -3°C° 0 mm 6 mps 749 mmHg 92%
07:00 -3°C° 0 mm 6 mps 748 mmHg 93%
08:00 -2°C° 0 mm 6 mps 748 mmHg 94%
09:00 -2°C° 0 mm 6 mps 747 mmHg 96%
10:00 -2°C° 0.1 mm 6 mps 747 mmHg 97%
11:00 -2°C° 0.1 mm 6 mps 746 mmHg 97%
12:00 -2°C° 0.1 mm 6 mps 746 mmHg 98%
13:00 -1°C° 0.1 mm 5 mps 745 mmHg 98%
14:00 -1°C° 0.1 mm 5 mps 745 mmHg 98%
15:00 -1°C° 0.1 mm 4 mps 745 mmHg 98%
16:00 -1°C° 0.1 mm 4 mps 745 mmHg 98%
17:00 -1°C° 0.1 mm 4 mps 745 mmHg 97%
18:00 -2°C° 0.1 mm 4 mps 744 mmHg 96%
19:00 -2°C° 0.1 mm 4 mps 745 mmHg 96%
20:00 -3°C° 0.1 mm 4 mps 745 mmHg 95%
21:00 -3°C° 0.1 mm 4 mps 745 mmHg 95%
22:00 -4°C° 0 mm 4 mps 745 mmHg 94%
23:00 -4°C° 0 mm 4 mps 746 mmHg 94%

Tomorrow, 3 March, Wednesday

Time Temperature Precipitation Wind Pressure Humidity
00:00 -5°C° 0 mm 4 mps 746 mmHg 93%
01:00 -5°C° 0 mm 4 mps 746 mmHg 93%
02:00 -7°C° 0 mm 4 mps 746 mmHg 94%
03:00 -6°C° 0 mm 3 mps 747 mmHg 94%
04:00 -7°C° 0 mm 4 mps 747 mmHg 93%
05:00 -8°C° 0 mm 4 mps 747 mmHg 92%
06:00 -8°C° 0 mm 5 mps 747 mmHg 91%
07:00 -8°C° 0 mm 5 mps 748 mmHg 91%
08:00 -8°C° 0 mm 5 mps 748 mmHg 90%
09:00 -9°C° 0 mm 6 mps 749 mmHg 90%
10:00 -9°C° 0 mm 6 mps 749 mmHg 88%
11:00 -8°C° 0 mm 6 mps 749 mmHg 86%
12:00 -8°C° 0 mm 6 mps 750 mmHg 85%
13:00 -8°C° 0 mm 6 mps 750 mmHg 83%
14:00 -6°C° 0 mm 5 mps 750 mmHg 82%
15:00 -6°C° 0 mm 5 mps 750 mmHg 81%
16:00 -7°C° 0 mm 4 mps 750 mmHg 84%
17:00 -8°C° 0 mm 4 mps 750 mmHg 86%
18:00 -7°C° 0 mm 3 mps 750 mmHg 89%
19:00 -7°C° 0 mm 3 mps 750 mmHg 91%
20:00 -8°C° 0 mm 4 mps 750 mmHg 92%
21:00 -7°C° 0 mm 4 mps 750 mmHg 93%
22:00 -7°C° 0 mm 4 mps 750 mmHg 93%
23:00 -7°C° 0 mm 4 mps 750 mmHg 93%

Day after tomorrow, 4 March, Thursday

Time Temperature Precipitation Wind Pressure Humidity
00:00 -7°C° 0 mm 4 mps 749 mmHg 93%
01:00 -7°C° 0 mm 4 mps 749 mmHg 93%
02:00 -7°C° 0 mm 4 mps 749 mmHg 93%
03:00 -6°C° 0 mm 5 mps 749 mmHg 93%
04:00 -6°C° 0 mm 5 mps 748 mmHg 93%
05:00 -6°C° 0 mm 5 mps 747 mmHg 92%
06:00 -6°C° 0 mm 5 mps 747 mmHg 92%
07:00 -5°C° 0.2 mm 6 mps 746 mmHg 91%
08:00 -6°C° 0.2 mm 7 mps 746 mmHg 90%
09:00 -4°C° 0.2 mm 7 mps 745 mmHg 89%
10:00 -3°C° 0 mm 7 mps 745 mmHg 89%
11:00 -3°C° 0 mm 7 mps 744 mmHg 88%
12:00 -2°C° 0 mm 7 mps 743 mmHg 87%
13:00 -2°C° 0 mm 7 mps 743 mmHg 86%
14:00 -2°C° 0 mm 7 mps 743 mmHg 84%
15:00 -2°C° 0 mm 7 mps 742 mmHg 83%
16:00 -2°C° 0 mm 7 mps 742 mmHg 83%
17:00 -2°C° 0 mm 7 mps 741 mmHg 84%
18:00 -2°C° 0 mm 6 mps 741 mmHg 85%
19:00 -2°C° 0 mm 6 mps 741 mmHg 86%
20:00 -2°C° 0 mm 6 mps 741 mmHg 87%
21:00 -2°C° 0 mm 6 mps 741 mmHg 89%
22:00 -1°C° 0.1 mm 5 mps 740 mmHg 91%
23:00 -1°C° 0.1 mm 5 mps 740 mmHg 94%

5 March, Friday

Time Temperature Precipitation Wind Pressure Humidity
00:00 -1°C° 0.1 mm 5 mps 740 mmHg 97%
01:00 -2°C° 0.3 mm 4 mps 741 mmHg 96%
02:00 -3°C° 0.3 mm 4 mps 741 mmHg 96%
03:00 -4°C° 0.3 mm 4 mps 742 mmHg 95%
04:00 -5°C° 0 mm 3 mps 742 mmHg 95%
05:00 -6°C° 0 mm 3 mps 743 mmHg 94%
06:00 -6°C° 0 mm 2 mps 744 mmHg 94%
07:00 -6°C° 0 mm 2 mps 744 mmHg 93%
08:00 -6°C° 0 mm 2 mps 745 mmHg 93%
09:00 -6°C° 0 mm 2 mps 746 mmHg 92%
10:00 -3°C° 0 mm 1 mps 746 mmHg 89%
11:00 -2°C° 0 mm 1 mps 747 mmHg 87%
12:00 -2°C° 0 mm 1 mps 747 mmHg 84%
13:00 -2°C° 0 mm 1 mps 748 mmHg 83%
14:00 -2°C° 0 mm 0 mps 748 mmHg 82%
15:00 -2°C° 0 mm 0 mps 748 mmHg 82%
16:00 -2°C° 0 mm 1 mps 748 mmHg 85%
17:00 -3°C° 0 mm 1 mps 748 mmHg 87%
18:00 -3°C° 0 mm 1 mps 748 mmHg 90%
19:00 -3°C° 0 mm 1 mps 748 mmHg 91%
20:00 -3°C° 0 mm 1 mps 748 mmHg 91%
21:00 -4°C° 0 mm 1 mps 748 mmHg 92%
22:00 -6°C° 0.1 mm 2 mps 748 mmHg 93%
23:00 -6°C° 0.1 mm 2 mps 748 mmHg 94%

6 March, Saturday

Time Temperature Precipitation Wind Pressure Humidity
00:00 -6°C° 0.1 mm 2 mps 747 mmHg 95%
01:00 -6°C° 0.3 mm 2 mps 747 mmHg 95%
02:00 -6°C° 0.3 mm 2 mps 747 mmHg 95%
03:00 -7°C° 0.3 mm 3 mps 747 mmHg 95%
04:00 -7°C° 0.2 mm 3 mps 747 mmHg 95%
05:00 -7°C° 0.2 mm 3 mps 747 mmHg 95%
06:00 -8°C° 0.2 mm 3 mps 747 mmHg 94%
07:00 -8°C° 0.1 mm 3 mps 747 mmHg 93%
08:00 -8°C° 0.1 mm 3 mps 747 mmHg 92%
09:00 -8°C° 0.1 mm 3 mps 747 mmHg 90%
10:00 -7°C° 0 mm 3 mps 747 mmHg 88%
11:00 -8°C° 0 mm 4 mps 748 mmHg 86%
12:00 -7°C° 0 mm 4 mps 748 mmHg 84%
13:00 -7°C° 0 mm 4 mps 748 mmHg 82%
14:00 -7°C° 0 mm 4 mps 749 mmHg 81%
15:00 -7°C° 0 mm 4 mps 749 mmHg 80%
16:00 -8°C° 0 mm 4 mps 749 mmHg 83%
17:00 -8°C° 0 mm 3 mps 749 mmHg 85%
18:00 -9°C° 0 mm 3 mps 749 mmHg 88%
19:00 -10°C° 0 mm 3 mps 749 mmHg 89%
20:00 -12°C° 0 mm 3 mps 750 mmHg 90%
21:00 -13°C° 0 mm 3 mps 750 mmHg 91%
22:00 -13°C° 0 mm 3 mps 750 mmHg 91%
23:00 -14°C° 0 mm 3 mps 750 mmHg 92%

7 March, Sunday

Time Temperature Precipitation Wind Pressure Humidity
00:00 -13°C° 0 mm 2 mps 750 mmHg 92%
01:00 -13°C° 0 mm 2 mps 750 mmHg 93%
02:00 -13°C° 0 mm 2 mps 750 mmHg 94%
03:00 -13°C° 0 mm 2 mps 750 mmHg 95%
04:00 -13°C° 0 mm 2 mps 750 mmHg 95%
05:00 -14°C° 0 mm 2 mps 749 mmHg 95%
06:00 -15°C° 0 mm 3 mps 749 mmHg 95%
07:00 -14°C° 0 mm 3 mps 749 mmHg 93%
08:00 -14°C° 0 mm 4 mps 748 mmHg 91%
09:00 -14°C° 0 mm 4 mps 748 mmHg 89%
10:00 -12°C° 0 mm 5 mps 747 mmHg 87%
11:00 -11°C° 0 mm 6 mps 746 mmHg 84%
12:00 -11°C° 0 mm 7 mps 745 mmHg 81%
13:00 -9°C° 0.1 mm 7 mps 744 mmHg 84%
14:00 -9°C° 0.1 mm 7 mps 743 mmHg 87%
15:00 -8°C° 0.1 mm 8 mps 743 mmHg 90%
16:00 -8°C° 0.2 mm 7 mps 742 mmHg 90%
17:00 -7°C° 0.2 mm 7 mps 742 mmHg 91%
18:00 -7°C° 0.2 mm 7 mps 741 mmHg 92%
19:00 -6°C° 0.2 mm 7 mps 741 mmHg 93%
20:00 -6°C° 0.2 mm 7 mps 740 mmHg 94%
21:00 -6°C° 0.2 mm 7 mps 740 mmHg 95%
22:00 -4°C° 0.2 mm 7 mps 739 mmHg 93%
23:00 -4°C° 0.2 mm 7 mps 739 mmHg 92%
Show more